Regional Weather Roundup
Issued by NWS Albany, NY

Home | Current Version | Previous Version | Text Only | Print | Product List | Glossary On
Versions: 1 2 3 4 5 6 7 8 9 10 11 12 13 14 15 16 17 18 19 20 21 22 23 24 25 26 27 28 29 30 31 32 33 34 35 36 37 38 39 40 41 42 43 44 45 46 47 48 49 50
000
ASUS41 KALY 280510
RWRALY

NEW YORK STATE HOURLY WEATHER ROUNDUP
NATIONAL WEATHER SERVICE ALBANY NY
1200 AM EST FRI NOV 28 2014

NOTE: "FAIR" INDICATES FEW OR NO CLOUDS BELOW 12,000 FEET WITH NO
SIGNIFICANT WEATHER AND/OR NO OBSTRUCTIONS TO VISIBILITY.

NYZ032-033-038>043-046>054-057>066-NYZ062>081-280600-
EAST


CITY           SKY/WX    TMP DP  RH WIND       PRES   REMARKS
ALBANY         FLURRIES  27  25  92 CALM      30.05F
GLENS FALLS    LGT SNOW  27  24  89 CALM      30.04F FOG
POUGHKEEPSIE   CLOUDY    28  26  92 CALM      30.05F FOG
MONTGOMERY     PTCLDY    29  23  78 W8        30.04S WCI  21
WHITE PLAINS   CLOUDY    32  27  81 N8        30.01F WCI  25
ISLIP          CLOUDY    35  28  75 NW9       30.02S WCI  28
NEW YORK CITY  PTCLDY    35  25  66 NW9       30.05F WCI  28
CENTRAL PARK   PTCLDY    34  24  67 MISG      30.07F
$$

NYZ005>009-017-018-044>046-055-056-280600-
CENTRAL


CITY           SKY/WX    TMP DP  RH WIND       PRES   REMARKS
FULTON         PTCLDY    21  17  84 W7        30.07S WCI  12
SYRACUSE       MOCLDY    24  22  91 W7        30.07S WCI  16
ROME           MOCLDY    27  26  96 W6        30.06S WCI  20
ELMIRA         LGT SNOW  29  27  92 NE3       30.05F FOG
BINGHAMTON     MOCLDY    23  21  92 W3        30.00F
MONTICELLO     CLEAR     21  19  93 W7        30.01F WCI  13
$$

NYZ026>034-041>043-280600-
NORTH


CITY           SKY/WX    TMP DP  RH WIND       PRES   REMARKS
WATERTOWN      CLOUDY    28  22  78 N3        30.07S
FORT DRUM      NOT AVBL
MASSENA        LGT SNOW  25  18  74 SW6       30.07F WCI  18
SARANAC LAKE   LGT SNOW  21 N/A N/A CALM      29.94S
PLATTSBURGH    CLOUDY    27  21  78 NW3       30.05S
$$

NYZ001>004-010>016-019>021-280600-
WEST


CITY           SKY/WX    TMP DP  RH WIND       PRES   REMARKS
NIAGARA FALLS  FLURRIES  29  23  78 NW15      30.14R WCI  18
BUFFALO        LGT SNOW  28  26  92 NW7       30.12R FOG     WCI  21
DUNKIRK        LGT SNOW  28  22  78 NW14G24   30.18R WCI  17
JAMESTOWN      CLOUDY    25  19  80 NW17G28   30.10R WCI  11
WELLSVILLE     CLOUDY    27  21  78 W6        30.00F WCI  20
ROCHESTER      CLOUDY    30  21  69 NW6       30.10R WCI  24
PENN YAN       CLOUDY    29  23  78 CALM      30.06S
$$

             KEY
       WCI = WIND CHILL INDEX
       VSB = VISIBILITY
       HX  = HEAT INDEX
$$



USA.gov is the U.S. government's official web portal to all federal, state and local government web resources and services.